JAGS McCartney International Airport


Codes: MBGT/GDT
Name: JAGS McCartney International Airport
City: Cockburn Town
Country: Turks and Caicos Islands
Elevation: 13 ft.
Wikipedia:

Photos at JAGS McCartney International Airport


   Photos courtesy of SpottingLog. You can add your own sightings and photos by signing up for a free trial today.



No photos found.

Weather at JAGS McCartney International Airport


Time (UTC)DescriptionTempratureWindCloud coverageVisibilityPressureHumidity
16-Jun-2024 12:00Overcast Clouds27°C7 mph, E100%10000m1015hPa78%
16-Jun-2024 15:00Overcast Clouds28°C7 mph, E100%10000m1015hPa77%
16-Jun-2024 18:00Overcast Clouds28°C7 mph, E100%10000m1014hPa74%
16-Jun-2024 21:00Overcast Clouds28°C9 mph, NE100%10000m1014hPa71%
17-Jun-2024 00:00Overcast Clouds28°C11 mph, NE100%10000m1014hPa78%
17-Jun-2024 03:00Overcast Clouds28°C9 mph, NE100%10000m1014hPa78%
17-Jun-2024 06:00Overcast Clouds28°C7 mph, E100%10000m1013hPa79%
17-Jun-2024 09:00Light Rain28°C7 mph, E100%10000m1013hPa79%
17-Jun-2024 12:00Light Rain27°C7 mph, E93%10000m1014hPa80%
17-Jun-2024 15:00Light Rain28°C11 mph, NE68%10000m1014hPa76%
17-Jun-2024 18:00Broken Clouds28°C9 mph, NE84%10000m1013hPa75%
17-Jun-2024 21:00Overcast Clouds28°C11 mph, NE95%10000m1012hPa76%
18-Jun-2024 00:00Broken Clouds28°C11 mph, NE52%10000m1013hPa76%
18-Jun-2024 03:00Few Clouds28°C11 mph, NE11%10000m1014hPa77%
18-Jun-2024 06:00Light Rain27°C7 mph, NE17%10000m1012hPa77%
18-Jun-2024 09:00Few Clouds27°C7 mph, NE13%10000m1012hPa77%
18-Jun-2024 12:00Light Rain27°C9 mph, NE26%10000m1013hPa78%
18-Jun-2024 15:00Clear Sky27°C7 mph, NE9%10000m1013hPa77%
18-Jun-2024 18:00Clear Sky27°C7 mph, NE6%10000m1012hPa75%
18-Jun-2024 21:00Clear Sky28°C7 mph, NE0%10000m1010hPa74%
19-Jun-2024 00:00Clear Sky28°C9 mph, E0%10000m1012hPa75%
19-Jun-2024 03:00Few Clouds28°C11 mph, SE23%10000m1012hPa76%
19-Jun-2024 06:00Light Rain28°C11 mph, SE61%10000m1011hPa75%
19-Jun-2024 09:00Light Rain28°C13 mph, SE79%10000m1011hPa78%
19-Jun-2024 12:00Light Rain28°C16 mph, SE70%10000m1013hPa79%
19-Jun-2024 15:00Scattered Clouds28°C16 mph, SE46%10000m1014hPa79%
19-Jun-2024 18:00Broken Clouds28°C16 mph, SE53%10000m1013hPa81%
19-Jun-2024 21:00Overcast Clouds28°C16 mph, E99%10000m1012hPa83%
20-Jun-2024 00:00Light Rain28°C18 mph, E92%10000m1013hPa85%
20-Jun-2024 03:00Light Rain28°C22 mph, E100%10000m1014hPa87%
20-Jun-2024 06:00Light Rain28°C20 mph, E100%10000m1013hPa87%
20-Jun-2024 09:00Overcast Clouds28°C20 mph, E98%10000m1014hPa86%
20-Jun-2024 12:00Overcast Clouds28°C20 mph, E99%10000m1015hPa82%
20-Jun-2024 15:00Light Rain28°C20 mph, E100%10000m1016hPa84%
20-Jun-2024 18:00Overcast Clouds28°C18 mph, E100%10000m1016hPa85%
20-Jun-2024 21:00Light Rain28°C20 mph, E100%10000m1015hPa84%
21-Jun-2024 00:00Light Rain28°C20 mph, E100%10000m1016hPa84%
21-Jun-2024 03:00Light Rain28°C20 mph, E100%10000m1017hPa84%
21-Jun-2024 06:00Light Rain28°C18 mph, E90%10000m1016hPa82%
21-Jun-2024 09:00Overcast Clouds28°C18 mph, E98%10000m1016hPa82%